Weather History for Valentine, NE

Change the Weather History Date:

Tuesday, February 12, 2013

  Actual Average Record
Temperature  
Mean Temperature 26 °F 26 °F  
Max Temperature 41 °F 39 °F 75 °F (1962)
Min Temperature 10 °F 14 °F -35 °F (1905)
Degree Days  
Heating Degree Days 39 39  
Month to date heating degree days 383 475  
Since 1 July heating degree days 4318 4653  
Cooling Degree Days 0 0  
Month to date cooling degree days 0 0  
Year to date cooling degree days 0 0  
Moisture  
Dew Point 16 °F    
Average Humidity 69    
Maximum Humidity 88    
Minimum Humidity 50    
Precipitation  
Precipitation 0.00 in 0.02 in 0.51 in (1915)
Month to date precipitation 0.54 0.16  
Year to date precipitation 0.79 0.42  
Snow  
Snow 0.00 in 0.20 in 5.20 in (1978)
Month to date snowfall 4.0 2.1  
Since 1 July snowfall 22.2 18.6  
Snow Depth 1.00 in    
Sea Level Pressure  
Sea Level Pressure 30.05 in    
Wind  
Wind Speed 9 mph (West)    
Max Wind Speed 20 mph    
Max Gust Speed 23 mph    
Visibility 10 miles    
Events      
T = Trace of Precipitation, MM = Missing Value Source: NWS Daily Summary

Daily Weather History Graph

Daily Weather History Graph

Search for Another Location

Airport:

Trip Planner

Search our weather history database for the weather conditions in past years. The results will help you decide how hot, cold, wet, or windy it might be!

Date:

Astronomy

Feb. 12, 2013 Rise Set
Actual Time 7:43 AM CST 6:10 PM CST
Civil Twilight 7:13 AM CST 6:39 PM CST
Nautical Twilight 6:40 AM CST 7:12 PM CST
Astronomical Twilight 6:07 AM CST 7:45 PM CST
Moon 8:36 AM CST (2/12) 9:19 PM CST (2/12)
Length of Visible Light 11h 25m
Length of Day
10h 27m
Waxing Crescent, 7% of the Moon is Illuminated
Feb 12
Waxing Crescent
Feb 17
First Quarter
Feb 25
Full
Mar 4
Last Quarter
Mar 11
New

Hourly Weather History & Observations

Time (CST) Temp. Windchill Dew Point Humidity Pressure Visibility Wind Dir Wind Speed Gust Speed Precip Events Conditions
12:52 AM 10.9 °F 2.9 °F 6.1 °F 81% 30.14 in 10.0 mi WNW 4.6 mph - N/A   Clear
1:52 AM 12.9 °F 6.9 °F 7.0 °F 77% 30.12 in 10.0 mi WSW 3.5 mph - N/A   Clear
2:52 AM 12.9 °F - 7.0 °F 77% 30.10 in 10.0 mi Calm Calm - N/A   Clear
3:52 AM 10.9 °F 1.4 °F 5.0 °F 77% 30.09 in 10.0 mi WSW 5.8 mph - N/A   Clear
4:52 AM 12.9 °F 2.6 °F 6.1 °F 74% 30.06 in 10.0 mi WSW 6.9 mph - N/A   Clear
5:52 AM 14.0 °F 0.5 °F 6.1 °F 71% 30.06 in 10.0 mi West 11.5 mph - N/A   Clear
6:52 AM 10.9 °F 0.2 °F 3.9 °F 73% 30.09 in 10.0 mi SW 6.9 mph - N/A   Clear
7:52 AM 14.0 °F -0.2 °F 5.0 °F 67% 30.09 in 10.0 mi West 12.7 mph - N/A   Scattered Clouds
8:52 AM 14.0 °F -0.2 °F 7.0 °F 74% 30.10 in 10.0 mi WSW 12.7 mph - N/A   Clear
9:52 AM 19.0 °F 7.5 °F 10.0 °F 68% 30.09 in 10.0 mi WSW 10.4 mph - N/A   Clear
10:52 AM 26.1 °F 16.8 °F 15.1 °F 63% 30.08 in 10.0 mi West 9.2 mph - N/A   Clear
11:52 AM 30.0 °F 20.0 °F 18.0 °F 61% 30.06 in 10.0 mi West 12.7 mph - N/A   Clear
12:52 PM 34.0 °F 24.6 °F 19.9 °F 56% 30.04 in 10.0 mi West 13.8 mph - N/A   Clear
1:52 PM 37.0 °F 28.9 °F 21.9 °F 54% 30.02 in 10.0 mi WNW 12.7 mph - N/A   Clear
2:52 PM 39.9 °F 32.9 °F 23.0 °F 51% 30.01 in 10.0 mi WNW 11.5 mph - N/A   Clear
3:52 PM 41.0 °F 33.1 °F 24.1 °F 51% 30.02 in 10.0 mi WNW 15.0 mph - N/A   Clear
4:52 PM 37.9 °F 30.5 °F 28.0 °F 68% 30.02 in 10.0 mi West 11.5 mph - N/A   Clear
5:52 PM 35.1 °F 26.9 °F 27.0 °F 72% 30.01 in 10.0 mi West 11.5 mph - N/A   Clear
6:52 PM 32.0 °F 24.2 °F 24.1 °F 73% 30.03 in 10.0 mi West 9.2 mph - N/A   Clear
7:52 PM 28.9 °F 21.1 °F 23.0 °F 78% 30.03 in 10.0 mi WNW 8.1 mph - N/A   Clear
8:52 PM 30.0 °F 23.2 °F 21.9 °F 72% 30.02 in 10.0 mi WNW 6.9 mph - N/A   Clear
9:52 PM 26.1 °F 19.4 °F 19.9 °F 78% 30.02 in 10.0 mi West 5.8 mph - N/A   Clear
10:52 PM 23.0 °F 15.8 °F 19.0 °F 85% 30.01 in 10.0 mi WSW 5.8 mph - N/A   Clear
11:52 PM 24.1 °F 16.0 °F 19.0 °F 81% 30.00 in 10.0 mi WSW 6.9 mph - N/A   Overcast